AirNav   Pilot Hours Calculator
 
 354 users online  

71CL Gunnersfield Ranch Airport
Delevan, California, USA

GOING TO DELEVAN?


FAA INFORMATION EFFECTIVE 25 FEBRUARY 2021

Location

FAA Identifier: 71CL
Lat/Long: 39-21-09.5910N 122-05-37.9160W
39-21.159850N 122-05.631933W
39.3526642,-122.0938656
(estimated)
Elevation: 62 ft. / 19 m (estimated)
Variation: 17E (1985)
From city: 4 miles E of DELEVAN, CA
Time zone: UTC -8 (UTC -7 during Daylight Saving Time)
Zip code: 95932

Airport Operations

Airport use: Private use. Permission required prior to landing
Activation date: 05/1965
Control tower: no
ARTCC: OAKLAND CENTER
FSS: RANCHO MURIETA FLIGHT SERVICE STATION
Attendance: UNATNDD
Wind indicator: yes
Segmented circle: no
Lights: FOR RWY LGTS PHONE 916-438-2316.
Beacon: white-green (lighted land airport)
FOR RTG BCN PHONE 916-438-2316.

Airport Communications

UNICOM: 122.8
  • UNICOM OPERATED AS REQUIRED.

Nearby radio navigation aids

VOR radial/distance  VOR name  Freq  Var
ILAr332/17.2WILLIAMS VORTAC114.4018E
MYVr286/28.6MARYSVILLE VOR/DME110.8016E

Airport Services

Airframe service: NONE
Powerplant service: NONE

Runway Information

Runway 16/34

Dimensions: 2570 x 40 ft. / 783 x 12 m
Surface: asphalt
Runway edge lights: low intensity
RUNWAY 16  RUNWAY 34
Traffic pattern: leftleft
Obstructions: none4 ft. levee, 20 ft. from runway

Airport Ownership and Management from official FAA records

Ownership: Privately-owned
Owner: JON B. CHANEY
PO BOX 626
MAXWELL, CA 95955
Phone 916-438-2504
Manager: DOUGLAS MC GEOGHEGAN
PO BOX 626
MAXWELL, CA 95955
Phone 916-438-2504

Airport Operational Statistics

Aircraft based on the field: 1
Single engine airplanes: 1
    

Additional Remarks

LGTD/MKD HANGER NEAR RWY.
FOR CD CTC OAKLAND ARTCC AT 510-745-3380.

Instrument Procedures

There are no published instrument procedures at 71CL.

Some nearby airports with instrument procedures:

KWLW - Willows-Glenn County Airport (11 nm NW)
O08 - Colusa County Airport (11 nm SE)
O37 - Haigh Field Airport (22 nm N)
KOVE - Oroville Municipal Airport (23 nm E)
KCIC - Chico Municipal Airport (29 nm N)
 
Loc | Ops | Rwys | IFR | FBO | Links
Com | Nav | Svcs | Stats | Notes

Sonoma Jet Center
 
Area around 71CL (Gunnersfield Ranch Airport)
 
Road maps at: MapQuest Bing Google
 
Aerial photo
No photo
 
Sectional chart

 
Airport distance calculator
Flying to Gunnersfield Ranch Airport? Find the distance to fly.

From to 71CL

Sunrise and sunset
Times for 02-Mar-2021
 Local
(UTC-8)
 Zulu
(UTC)
Morning civil twilight06:1414:14
Sunrise06:4114:41
Sunset18:0102:01
Evening civil twilight18:2702:27

Current date and time
Zulu (UTC)  02-Mar-2021 10:40:13
Local (UTC-8)  02-Mar-2021 02:40:13
 
METAR
KOVE 
24nm E 
020953Z AUTO 29004KT 10SM CLR 07/M01 A3004 RMK AO2 SLP173 T00671006
KCIC 
29nm NE 
020955Z AUTO 00000KT 10SM CLR 06/M02 A3005 RMK AO1
KMYV 
29nm SE 
020953Z AUTO 35006KT 10SM CLR 06/M01 A3003 RMK AO2 SLP172 T00611006
KBAB 
33nm SE 
020958Z AUTO 31008KT 10SM CLR 05/M00 A3001 RMK AO2 SLP165 T00491001 $
KLHM 
44nm SE 
020955Z AUTO 01003KT 10SM CLR 01/00 A3000 RMK AO1
KSMF 
45nm SE 
020953Z 35007KT 10SM BKN250 07/M01 A3001 RMK AO2 SLP160 T00671006
TAF
KBAB 
33nm SE 
020322Z 0203/0309 VRB05KT 9999 SKC QNH2998INS BECMG 0218/0219 30009KT 9999 FEW180 QNH2985INS BECMG 0302/0303 VRB05KT 9999 FEW200 QNH2977INS TX22/0223Z TN02/0214Z LAST NO AMDS AFT 0203 NEXT 0213
NOTAMs
Click for the latest NOTAMs
NOTAMs are issued by the DoD/FAA and will open in a separate window not controlled by AirNav.

 

 
 

Would you like to see your business listed on this page?

 If your business provides an interesting product or service to pilots, flight crews, aircraft, or users of the Gunnersfield Ranch Airport, you should consider listing it here.  To start the listing process, click on the button below
 
Add a business
 

Other Pages about Gunnersfield Ranch Airport

Update a link
 
Copyright © AirNav, LLC. All rights reserved. Privacy Policy  Contact